Flag for Germany Weather past 2 weeks in Kiel, Schleswig-Holstein, Germany

Now
61 °F

Sunny.


Feels Like: 61 °F
Forecast: 59 / 77 °F
Wind: 8 mph from West

Location: Kiel / Holtenau Civilian

Current Time: Jul 31, 2014 at 8:16:08 AM

Latest Report: Jul 31, 2014 at 7:20 AM


Visibility: 10 mi

Pressure: 29.92 "Hg

Humidity: 83%

Dew point: 55 °F

Location of KielLocation

Historic Weather in Kiel — Graph

°F

Kiel temperature yesterday

Maximum temperature yesterday: 75 °F (at 2:20 PM)
Minimum temperature yesterday: 66 °F (at 9:50 AM)
Average temperature yesterday: 71 °F

Past Weeks' High & Low Weather Summary

 TemperatureHumidityPressure
High84 °F (Jul 19, 1:50 PM)94% (Jul 26, 8:20 AM)30.21 "Hg (Jul 26, 8:20 AM)
Low63 °F (Jul 16, 8:20 AM)39% (Jul 19, 6:20 PM)29.77 "Hg (Jul 30, 8:50 AM)
Average73 °F64%30.02 "Hg
* Reported Jul 15 5:50 PM — Jul 30 5:50 PM, Kiel, Weather by CustomWeather, © 2014

Note: Actual official high and low records may vary slightly from our data, if they occured in-between our weather recording intervals... More about our weather records

Advertising

Kiel weather history for previous 24 hours

 ConditionsComfort  
Time TempWeatherWind HumidityBarometerVisibility
5:50 PM
Jul 30
75 °FPartly sunny.15 mph50%29.80 "HgN/A
5:20 PM73 °FBroken clouds.15 mph53%29.80 "HgN/A
4:50 PM73 °FBroken clouds.12 mph53%29.80 "HgN/A
4:20 PM73 °FPartly sunny.9 mph53%29.80 "HgN/A
3:20 PM75 °FPartly sunny.6 mph47%29.80 "HgN/A
2:50 PM75 °FScattered clouds.9 mph47%29.80 "HgN/A
2:20 PM75 °FScattered clouds.6 mph47%29.80 "HgN/A
1:50 PM73 °FPartly sunny.9 mph57%29.83 "HgN/A
1:20 PM72 °FPartly sunny.8 mph61%29.83 "HgN/A
12:50 PM72 °FPartly sunny.9 mph61%29.83 "HgN/A
12:20 PM72 °FPartly sunny.6 mph65%29.83 "HgN/A
11:50 AM68 °FMostly cloudy.6 mph73%29.83 "HgN/A
11:20 AM68 °FOvercast.8 mph69%29.83 "HgN/A
10:50 AM68 °FOvercast.12 mph73%29.83 "HgN/A
10:20 AM68 °FMostly cloudy.12 mph73%29.80 "HgN/A
9:50 AM66 °FOvercast.12 mph78%29.80 "HgN/A
8:50 AM68 °FOvercast.10 mph83%29.77 "HgN/A
Weather by CustomWeather, © 2014

See weather overviewHow to use our weather pages